Notices

What's New in latest Release from April 7th, 2021:

- Updated Glossary, including Speed of Maximum Gust, and Total Hourly Precipitation

- Updated national and regional climate services offices contacts and prices information

- Addition of station inventory lists for 1981-2010, 1971-2000, and 1961-1990 Normals.

If you haven't already, please take our survey and provide feedback about our website: https://eccc.sondage-survey.ca/f/LanguageSelection.aspx?s=442ca660-fcf1-47c0-95a9-59707d6fd709

Hourly Data Report for April 08, 2021

CLYDE RIVER A
NUNAVUT
Current Station Operator: NAVCAN

70°29'09.000" N
68°31'01.000" W
26.50 m
2400804
71090
YCY

Download Data

Hourly Data (April 2021)
Hourly Data Report for April 8, 2021
TIME
LST
Temp Definition
°C
Dew Point Definition
°C
Rel Hum Definition
%
Precip. Amount Definition
mm

Wind Dir Definition
10's deg

Wind Spd Definition
km/h
Visibility Definition
km
Stn Press Definition
kPa
Hmdx Definition


Wind Chill Definition


Weather Definition


00:00 -11.9 -13.0 92 0.2 32 17 2.8 101.61   -20 Snow
01:00 -11.7 -12.6 93 0.0 33 15 4.0 101.50   -19 Snow
02:00 -11.2 -12.0 94 0.2 33 15 2.4 101.41   -18 Snow
03:00 -11.1 -11.9 94 0.2 33 17 2.0 101.31   -19 Snow
04:00 -10.7 -11.5 94 0.2 34 15 1.2 101.22   -18 Snow
05:00 -11.2 -12.1 93 0.5 32 22 1.0 101.11   -20 Snow
06:00 -10.9 -11.8 93 0.0 33 21 1.2 101.03   -19 Snow
07:00 -10.5 -11.4 93 0.0 34 22 1.2 100.94   -19 Snow
08:00 -10.8 -12.0 91 0.2 33 28 2.0 100.84   -20 Snow
09:00 -10.6 -11.9 90 0.0 32 32 2.4 100.76   -21 Snow
10:00 -10.6 -12.1 89 0.0 31 35 3.2 100.68   -21 Snow
11:00 -10.7 -12.2 89 0.0 31 39 1.6 100.62   -22 Snow
12:00 -10.7 -12.3 88 0.0 31 45 2.8 100.59   -22 Snow,Blowing Snow
13:00 -10.7 -12.4 88 0.0 31 39 4.0 100.59   -22 Snow,Blowing Snow
14:00 -10.8 -12.3 89 0.0 31 52 3.2 100.56   -23 Snow,Blowing Snow
15:00 -11.2 -12.5 90 0.0 31 48 2.0 100.55   -23 Snow,Blowing Snow
16:00 -11.1 -12.3 91 0.0 31 55 1.2 100.57   -24 Snow,Blowing Snow
17:00 -11.3 -12.5 91 0.0 32 59 0.8 100.61   -24 Moderate Snow,Blowing Snow
18:00 -12.0 -13.2 91 0.0 31 55 0.8 100.73   -25 Moderate Snow,Blowing Snow
19:00 -12.5 -13.5 92 0.0 31 58 0.8 100.79   -26 Moderate Snow,Blowing Snow
20:00 -12.9 -14.1 91 0.0 31 55 0.8 100.88   -26 Moderate Snow,Blowing Snow
21:00 -13.1 -14.3 91 0.0 31 50 1.2 100.96   -26 Snow,Blowing Snow
22:00 -13.2 -14.4 91 0.0 31 54 1.2 101.02   -27 Snow,Blowing Snow
23:00 -13.3 -14.5 91 0.0 31 55 1.2 101.11   -27 Snow,Blowing Snow

Notes on Data Quality.

Legend

  • E = Estimated
  • M = Missing
  • NA = Not Available*
  • [empty] = Indicates an unobserved value
Date modified: